Time,TemperatureF,DewpointF,PressureIn,WindDirection,WindDirectionDegrees,WindSpeedMPH,WindSpeedGustMPH,Humidity,HourlyPrecipIn,Conditions,Clouds,dailyrainin,SoftwareType,DateUTC
2013-05-29 00:11:00,64.0,62.0,30.05,South,171,0.0,0.0,93,0.00,,,0.00,weatherlink.com 1.10,2013-05-29 04:11:00,
2013-05-29 00:26:00,63.5,62.0,30.05,South,171,0.0,0.0,94,0.00,,,0.00,weatherlink.com 1.10,2013-05-29 04:26:00,
2013-05-29 00:41:00,63.2,62.0,30.05,South,171,0.0,0.0,94,0.00,,,0.00,weatherlink.com 1.10,2013-05-29 04:41:00,
2013-05-29 00:56:00,62.8,61.0,30.05,South,171,0.0,0.0,94,0.00,,,0.00,weatherlink.com 1.10,2013-05-29 04:56:00,
2013-05-29 01:11:00,62.5,61.0,30.05,South,171,0.0,0.0,94,0.00,,,0.00,weatherlink.com 1.10,2013-05-29 05:11:00,
2013-05-29 01:27:00,62.2,61.0,30.05,South,171,0.0,0.0,95,0.00,,,0.00,weatherlink.com 1.10,2013-05-29 05:27:00,
2013-05-29 01:42:00,62.0,61.0,30.05,South,171,0.0,0.0,95,0.00,,,0.00,weatherlink.com 1.10,2013-05-29 05:42:00,
2013-05-29 01:57:00,61.7,60.0,30.04,South,171,0.0,0.0,95,0.00,,,0.00,weatherlink.com 1.10,2013-05-29 05:57:00,
2013-05-29 02:12:00,61.3,60.0,30.04,South,171,0.0,0.0,95,0.00,,,0.00,weatherlink.com 1.10,2013-05-29 06:12:00,
2013-05-29 02:27:00,61.1,60.0,30.03,South,171,0.0,0.0,95,0.00,,,0.00,weatherlink.com 1.10,2013-05-29 06:27:00,
2013-05-29 02:42:00,61.0,60.0,30.03,South,171,0.0,0.0,96,0.00,,,0.00,weatherlink.com 1.10,2013-05-29 06:42:00,
2013-05-29 02:57:00,60.9,60.0,30.03,South,171,0.0,0.0,96,0.00,,,0.00,weatherlink.com 1.10,2013-05-29 06:57:00,
2013-05-29 03:12:00,61.0,60.0,30.03,South,171,0.0,0.0,96,0.00,,,0.00,weatherlink.com 1.10,2013-05-29 07:12:00,
2013-05-29 03:27:00,60.8,60.0,30.03,South,171,0.0,0.0,96,0.00,,,0.00,weatherlink.com 1.10,2013-05-29 07:27:00,
2013-05-29 03:42:00,60.5,59.0,30.03,South,171,0.0,0.0,96,0.00,,,0.00,weatherlink.com 1.10,2013-05-29 07:42:00,
2013-05-29 03:57:00,60.6,60.0,30.03,South,171,0.0,0.0,96,0.00,,,0.00,weatherlink.com 1.10,2013-05-29 07:57:00,
2013-05-29 04:12:00,60.6,60.0,30.03,South,171,0.0,0.0,96,0.00,,,0.00,weatherlink.com 1.10,2013-05-29 08:12:00,
2013-05-29 04:27:00,60.7,60.0,30.03,South,171,0.0,0.0,97,0.00,,,0.00,weatherlink.com 1.10,2013-05-29 08:27:00,
2013-05-29 04:42:00,60.8,60.0,30.03,South,171,0.0,0.0,97,0.00,,,0.00,weatherlink.com 1.10,2013-05-29 08:42:00,
2013-05-29 04:57:00,60.6,60.0,30.03,South,171,0.0,0.0,97,0.00,,,0.00,weatherlink.com 1.10,2013-05-29 08:57:00,
2013-05-29 05:12:00,60.7,60.0,30.03,South,171,0.0,0.0,97,0.00,,,0.00,weatherlink.com 1.10,2013-05-29 09:12:00,
2013-05-29 05:27:00,60.5,60.0,30.03,South,171,0.0,0.0,97,0.00,,,0.00,weatherlink.com 1.10,2013-05-29 09:27:00,
2013-05-29 05:42:00,60.5,60.0,30.04,South,171,0.0,0.0,97,0.00,,,0.00,weatherlink.com 1.10,2013-05-29 09:42:00,
2013-05-29 05:57:00,61.0,61.0,30.04,South,171,0.0,0.0,98,0.00,,,0.00,weatherlink.com 1.10,2013-05-29 09:57:00,
2013-05-29 06:12:00,61.4,61.0,30.04,South,171,0.0,0.0,97,0.00,,,0.00,weatherlink.com 1.10,2013-05-29 10:12:00,
2013-05-29 06:27:00,61.9,61.0,30.05,South,171,0.0,0.0,98,0.00,,,0.00,weatherlink.com 1.10,2013-05-29 10:27:00,
2013-05-29 06:42:00,62.2,62.0,30.04,South,171,0.0,0.0,98,0.00,,,0.00,weatherlink.com 1.10,2013-05-29 10:42:00,
2013-05-29 06:57:00,62.6,62.0,30.05,South,173,0.0,0.0,98,0.00,,,0.00,weatherlink.com 1.10,2013-05-29 10:57:00,
2013-05-29 07:12:00,63.3,63.0,30.05,South,176,0.0,0.0,98,0.00,,,0.00,weatherlink.com 1.10,2013-05-29 11:12:00,
2013-05-29 07:27:00,64.1,64.0,30.06,South,178,0.0,0.0,98,0.00,,,0.00,weatherlink.com 1.10,2013-05-29 11:27:00,
2013-05-29 07:42:00,64.9,64.0,30.06,South,178,0.0,0.0,98,0.00,,,0.00,weatherlink.com 1.10,2013-05-29 11:42:00,
2013-05-29 07:57:00,66.0,66.0,30.06,WSW,240,0.0,1.0,98,0.00,,,0.00,weatherlink.com 1.10,2013-05-29 11:57:00,
2013-05-29 08:12:00,67.0,67.0,30.07,SW,226,0.0,6.0,98,0.00,,,0.00,weatherlink.com 1.10,2013-05-29 12:12:00,
2013-05-29 08:27:00,68.0,67.0,30.07,WSW,242,0.0,4.0,97,0.00,,,0.00,weatherlink.com 1.10,2013-05-29 12:27:00,
2013-05-29 08:42:00,69.8,67.0,30.08,SW,225,0.0,7.0,91,0.00,,,0.00,weatherlink.com 1.10,2013-05-29 12:42:00,
2013-05-29 08:57:00,71.1,68.0,30.08,SSW,209,0.0,4.0,89,0.00,,,0.00,weatherlink.com 1.10,2013-05-29 12:57:00,
2013-05-29 09:12:00,72.1,68.0,30.07,SE,141,0.0,4.0,86,0.00,,,0.00,weatherlink.com 1.10,2013-05-29 13:12:00,
2013-05-29 09:27:00,73.7,68.0,30.08,South,191,2.0,5.0,82,0.00,,,0.00,weatherlink.com 1.10,2013-05-29 13:27:00,
2013-05-29 09:42:00,75.2,68.0,30.07,WSW,241,4.0,8.0,79,0.00,,,0.00,weatherlink.com 1.10,2013-05-29 13:42:00,
2013-05-29 09:57:00,76.7,69.0,30.07,SW,225,0.0,5.0,77,0.00,,,0.00,weatherlink.com 1.10,2013-05-29 13:57:00,
2013-05-29 10:13:00,78.2,69.0,30.07,SSE,152,2.0,10.0,74,0.00,,,0.00,weatherlink.com 1.10,2013-05-29 14:13:00,
2013-05-29 10:28:00,79.1,69.0,30.07,West,269,1.0,9.0,71,0.00,,,0.00,weatherlink.com 1.10,2013-05-29 14:28:00,
2013-05-29 10:43:00,79.8,70.0,30.07,West,279,3.0,5.0,72,0.00,,,0.00,weatherlink.com 1.10,2013-05-29 14:43:00,
2013-05-29 10:58:00,80.2,70.0,30.07,SE,138,4.0,11.0,71,0.00,,,0.00,weatherlink.com 1.10,2013-05-29 14:58:00,
2013-05-29 11:13:00,81.4,70.0,30.07,West,261,4.0,7.0,68,0.00,,,0.00,weatherlink.com 1.10,2013-05-29 15:13:00,
2013-05-29 11:28:00,82.5,71.0,30.07,SE,140,1.0,9.0,69,0.00,,,0.00,weatherlink.com 1.10,2013-05-29 15:28:00,
2013-05-29 11:43:00,83.3,68.0,30.07,West,267,5.0,12.0,60,0.00,,,0.00,weatherlink.com 1.10,2013-05-29 15:43:00,
2013-05-29 11:58:00,83.2,68.0,30.07,WNW,302,4.0,10.0,60,0.00,,,0.00,weatherlink.com 1.10,2013-05-29 15:58:00,
2013-05-29 12:13:00,83.3,69.0,30.08,West,280,0.0,7.0,63,0.00,,,0.00,weatherlink.com 1.10,2013-05-29 16:13:00,
2013-05-29 12:28:00,84.2,68.0,30.08,West,280,1.0,11.0,58,0.00,,,0.00,weatherlink.com 1.10,2013-05-29 16:28:00,
2013-05-29 12:43:00,84.9,70.0,30.07,West,277,4.0,9.0,61,0.00,,,0.00,weatherlink.com 1.10,2013-05-29 16:43:00,
2013-05-29 12:58:00,85.7,69.0,30.07,West,260,1.0,6.0,58,0.00,,,0.00,weatherlink.com 1.10,2013-05-29 16:58:00,
2013-05-29 13:13:00,85.3,68.0,30.06,WNW,302,0.0,10.0,57,0.00,,,0.00,weatherlink.com 1.10,2013-05-29 17:13:00,
2013-05-29 13:28:00,85.9,69.0,30.06,SW,218,2.0,9.0,57,0.00,,,0.00,weatherlink.com 1.10,2013-05-29 17:28:00,
2013-05-29 13:43:00,85.6,69.0,30.06,NW,317,3.0,7.0,58,0.00,,,0.00,weatherlink.com 1.10,2013-05-29 17:43:00,
2013-05-29 13:58:00,85.7,70.0,30.05,West,265,0.0,7.0,60,0.00,,,0.00,weatherlink.com 1.10,2013-05-29 17:58:00,
2013-05-29 14:13:00,86.1,69.0,30.05,SSW,202,4.0,8.0,56,0.00,,,0.00,weatherlink.com 1.10,2013-05-29 18:13:00,
2013-05-29 14:28:00,85.5,67.0,30.05,WNW,302,4.0,10.0,55,0.00,,,0.00,weatherlink.com 1.10,2013-05-29 18:28:00,
2013-05-29 14:43:00,87.1,68.0,30.05,WNW,292,6.0,13.0,53,0.00,,,0.00,weatherlink.com 1.10,2013-05-29 18:43:00,
2013-05-29 14:58:00,87.4,67.0,30.05,NNW,340,4.0,12.0,51,0.00,,,0.00,weatherlink.com 1.10,2013-05-29 18:58:00,
2013-05-29 15:13:00,87.0,68.0,30.04,WNW,288,1.0,6.0,53,0.00,,,0.00,weatherlink.com 1.10,2013-05-29 19:13:00,
2013-05-29 15:28:00,88.1,68.0,30.03,SE,134,5.0,8.0,52,0.00,,,0.00,weatherlink.com 1.10,2013-05-29 19:28:00,
2013-05-29 15:43:00,88.3,71.0,30.04,SSW,202,3.0,7.0,56,0.00,,,0.00,weatherlink.com 1.10,2013-05-29 19:43:00,
2013-05-29 15:58:00,87.5,68.0,30.04,SW,235,3.0,8.0,53,0.00,,,0.00,weatherlink.com 1.10,2013-05-29 19:58:00,
2013-05-29 16:13:00,88.9,71.0,30.03,WNW,286,4.0,8.0,55,0.00,,,0.00,weatherlink.com 1.10,2013-05-29 20:13:00,
2013-05-29 16:28:00,88.7,67.0,30.02,WNW,286,9.0,9.0,49,0.00,,,0.00,weatherlink.com 1.10,2013-05-29 20:28:00,
2013-05-29 16:43:00,87.1,67.0,30.02,SW,222,3.0,11.0,51,0.00,,,0.00,weatherlink.com 1.10,2013-05-29 20:43:00,
2013-05-29 16:58:00,87.6,68.0,30.02,West,268,1.0,5.0,52,0.00,,,0.00,weatherlink.com 1.10,2013-05-29 20:58:00,
2013-05-29 17:13:00,88.0,67.0,30.02,West,276,1.0,5.0,50,0.00,,,0.00,weatherlink.com 1.10,2013-05-29 21:13:00,
2013-05-29 17:28:00,89.1,68.0,30.02,SW,233,2.0,6.0,49,0.00,,,0.00,weatherlink.com 1.10,2013-05-29 21:28:00,
2013-05-29 17:43:00,88.0,66.0,30.02,West,267,4.0,8.0,49,0.00,,,0.00,weatherlink.com 1.10,2013-05-29 21:43:00,
2013-05-29 17:58:00,87.7,68.0,30.02,West,265,1.0,9.0,52,0.00,,,0.00,weatherlink.com 1.10,2013-05-29 21:58:00,
2013-05-29 18:13:00,87.5,68.0,30.02,ESE,119,2.0,7.0,52,0.00,,,0.00,weatherlink.com 1.10,2013-05-29 22:13:00,
2013-05-29 18:28:00,86.9,69.0,30.02,West,269,0.0,6.0,55,0.00,,,0.00,weatherlink.com 1.10,2013-05-29 22:28:00,
2013-05-29 18:43:00,86.5,69.0,30.02,WSW,247,2.0,8.0,56,0.00,,,0.00,weatherlink.com 1.10,2013-05-29 22:43:00,
2013-05-29 18:58:00,86.0,69.0,30.02,SSE,157,0.0,7.0,57,0.00,,,0.00,weatherlink.com 1.10,2013-05-29 22:58:00,
2013-05-29 19:13:00,85.4,69.0,30.02,SE,146,4.0,7.0,58,0.00,,,0.00,weatherlink.com 1.10,2013-05-29 23:13:00,
2013-05-29 19:28:00,84.8,69.0,30.02,SSE,166,2.0,7.0,60,0.00,,,0.00,weatherlink.com 1.10,2013-05-29 23:28:00,
2013-05-29 19:47:00,84.0,70.0,30.02,SSE,149,0.0,4.0,62,0.00,,,0.00,weatherlink.com 1.10,2013-05-29 23:47:00,
2013-05-29 19:58:00,83.3,70.0,30.02,SE,144,0.0,3.0,64,0.00,,,0.00,weatherlink.com 1.10,2013-05-29 23:58:00,
2013-05-29 20:13:00,82.4,70.0,30.02,SE,144,0.0,0.0,66,0.00,,,0.00,weatherlink.com 1.10,2013-05-30 00:13:00,
2013-05-29 20:28:00,81.2,70.0,30.02,SE,144,2.0,3.0,68,0.00,,,0.00,weatherlink.com 1.10,2013-05-30 00:28:00,
2013-05-29 20:44:00,80.0,70.0,30.02,SE,144,0.0,0.0,71,0.00,,,0.00,weatherlink.com 1.10,2013-05-30 00:44:00,
2013-05-29 20:59:00,78.7,69.0,30.02,SE,144,0.0,1.0,73,0.00,,,0.00,weatherlink.com 1.10,2013-05-30 00:59:00,
2013-05-29 21:14:00,77.2,70.0,30.02,SE,144,0.0,0.0,77,0.00,,,0.00,weatherlink.com 1.10,2013-05-30 01:14:00,
2013-05-29 21:29:00,76.0,69.0,30.02,SE,144,0.0,0.0,78,0.00,,,0.00,weatherlink.com 1.10,2013-05-30 01:29:00,
2013-05-29 21:44:00,75.1,68.0,30.02,SE,144,0.0,0.0,79,0.00,,,0.00,weatherlink.com 1.10,2013-05-30 01:44:00,
2013-05-29 21:59:00,74.4,68.0,30.02,SE,144,0.0,0.0,81,0.00,,,0.00,weatherlink.com 1.10,2013-05-30 01:59:00,
2013-05-29 22:14:00,73.6,68.0,30.03,SE,144,0.0,0.0,83,0.00,,,0.00,weatherlink.com 1.10,2013-05-30 02:14:00,
2013-05-29 22:29:00,72.9,68.0,30.03,SE,144,0.0,0.0,84,0.00,,,0.00,weatherlink.com 1.10,2013-05-30 02:29:00,
2013-05-29 22:44:00,72.2,68.0,30.03,SE,144,0.0,0.0,85,0.00,,,0.00,weatherlink.com 1.10,2013-05-30 02:44:00,
2013-05-29 22:59:00,71.6,68.0,30.04,SE,144,0.0,0.0,87,0.00,,,0.00,weatherlink.com 1.10,2013-05-30 02:59:00,
2013-05-29 23:14:00,70.9,67.0,30.04,SE,144,0.0,0.0,88,0.00,,,0.00,weatherlink.com 1.10,2013-05-30 03:14:00,
2013-05-29 23:29:00,70.2,67.0,30.05,SE,144,0.0,0.0,89,0.00,,,0.00,weatherlink.com 1.10,2013-05-30 03:29:00,
2013-05-29 23:44:00,69.6,66.0,30.05,SE,144,0.0,0.0,89,0.00,,,0.00,weatherlink.com 1.10,2013-05-30 03:44:00,
2013-05-29 23:59:00,69.1,66.0,30.05,SE,144,0.0,0.0,90,0.00,,,0.00,weatherlink.com 1.10,2013-05-30 03:59:00,